﻿測定場所 (Monitoring sites),日付 (Measurement date),時間 (Measurement time),線量率 最大値 (max) μGy/h,線量率 最小値 (min) μGy/h,線量率 平均値 (average) μGy/h,
新宿 (Shinjuku),2011-03-13,23:00～23:59,0.0360,0.0316,0.0338,
新宿 (Shinjuku),2011-03-13,22:00～22:59,0.0362,0.0318,0.0335,
新宿 (Shinjuku),2011-03-13,21:00～21:59,0.0360,0.0317,0.0338,
新宿 (Shinjuku),2011-03-13,20:00～20:59,0.0367,0.0315,0.0340,
新宿 (Shinjuku),2011-03-13,19:00～19:59,0.0358,0.0314,0.0337,
新宿 (Shinjuku),2011-03-13,18:00～18:59,0.0367,0.0316,0.0338,
新宿 (Shinjuku),2011-03-13,17:00～17:59,0.0364,0.0322,0.0340,
新宿 (Shinjuku),2011-03-13,16:00～16:59,0.0363,0.0316,0.0340,
新宿 (Shinjuku),2011-03-13,15:00～15:59,0.0363,0.0320,0.0343,
新宿 (Shinjuku),2011-03-13,14:00～14:59,0.0378,0.0315,0.0340,
新宿 (Shinjuku),2011-03-13,13:00～13:59,0.0364,0.0325,0.0341,
新宿 (Shinjuku),2011-03-13,12:00～12:59,0.0371,0.0329,0.0347,
新宿 (Shinjuku),2011-03-13,11:00～11:59,0.0369,0.0327,0.0346,
新宿 (Shinjuku),2011-03-13,10:00～10:59,0.0371,0.0331,0.0350,
新宿 (Shinjuku),2011-03-13,09:00～09:59,0.0383,0.0334,0.0350,
新宿 (Shinjuku),2011-03-13,08:00～08:59,0.0381,0.0322,0.0355,
新宿 (Shinjuku),2011-03-13,07:00～07:59,0.0370,0.0329,0.0348,
新宿 (Shinjuku),2011-03-13,06:00～06:59,0.0370,0.0329,0.0349,
新宿 (Shinjuku),2011-03-13,05:00～05:59,0.0370,0.0327,0.0345,
新宿 (Shinjuku),2011-03-13,04:00～04:59,0.0367,0.0325,0.0344,
新宿 (Shinjuku),2011-03-13,03:00～03:59,0.0369,0.0323,0.0343,
新宿 (Shinjuku),2011-03-13,02:00～02:59,0.0362,0.0322,0.0342,
新宿 (Shinjuku),2011-03-13,01:00～01:59,0.0370,0.0329,0.0344,
新宿 (Shinjuku),2011-03-13,00:00～00:59,0.0356,0.0315,0.0337,
新宿 (Shinjuku),2011-03-12,23:00～23:59,0.0360,0.0320,0.0340,
新宿 (Shinjuku),2011-03-12,22:00～22:59,0.0359,0.0320,0.0340,
新宿 (Shinjuku),2011-03-12,21:00～21:59,0.0360,0.0315,0.0339,
新宿 (Shinjuku),2011-03-12,20:00～20:59,0.0361,0.0305,0.0339,
新宿 (Shinjuku),2011-03-12,19:00～19:59,0.0356,0.0318,0.0338,
新宿 (Shinjuku),2011-03-12,18:00～18:59,0.0361,0.0318,0.0338,
新宿 (Shinjuku),2011-03-12,17:00～17:59,0.0357,0.0325,0.0339,
新宿 (Shinjuku),2011-03-12,16:00～16:59,0.0363,0.0322,0.0341,
新宿 (Shinjuku),2011-03-12,15:00～15:59,0.0368,0.0322,0.0343,
新宿 (Shinjuku),2011-03-12,14:00～14:59,0.0384,0.0314,0.0343,
新宿 (Shinjuku),2011-03-12,13:00～13:59,0.0367,0.0325,0.0344,
新宿 (Shinjuku),2011-03-12,12:00～12:59,0.0360,0.0320,0.0342,
新宿 (Shinjuku),2011-03-12,11:00～11:59,0.0363,0.0318,0.0344,
新宿 (Shinjuku),2011-03-12,10:00～10:59,0.0360,0.0315,0.0341,
新宿 (Shinjuku),2011-03-12,09:00～09:59,0.0358,0.0328,0.0341,
新宿 (Shinjuku),2011-03-12,08:00～08:59,0.0368,0.0329,0.0348,
新宿 (Shinjuku),2011-03-12,07:00～07:59,0.0376,0.0326,0.0344,
新宿 (Shinjuku),2011-03-12,06:00～06:59,0.0370,0.0319,0.0346,
新宿 (Shinjuku),2011-03-12,05:00～05:59,0.0362,0.0306,0.0342,
新宿 (Shinjuku),2011-03-12,04:00～04:59,0.0364,0.0319,0.0343,
新宿 (Shinjuku),2011-03-12,03:00～03:59,0.0370,0.0318,0.0342,
新宿 (Shinjuku),2011-03-12,02:00～02:59,0.0377,0.0315,0.0342,
新宿 (Shinjuku),2011-03-12,01:00～01:59,0.0367,0.0318,0.0341,
新宿 (Shinjuku),2011-03-12,00:00～00:59,0.0363,0.0315,0.0339,
新宿 (Shinjuku),2011-03-11,23:00～23:59,0.0360,0.0311,0.0338,
新宿 (Shinjuku),2011-03-11,22:00～22:59,0.0367,0.0313,0.0340,
新宿 (Shinjuku),2011-03-11,21:00～21:59,0.0360,0.0322,0.0340,
新宿 (Shinjuku),2011-03-11,20:00～20:59,0.0362,0.0313,0.0338,
新宿 (Shinjuku),2011-03-11,19:00～19:59,0.0357,0.0320,0.0337,
新宿 (Shinjuku),2011-03-11,18:00～18:59,0.0374,0.0318,0.0339,
新宿 (Shinjuku),2011-03-11,17:00～17:59,0.0364,0.0320,0.0342,
新宿 (Shinjuku),2011-03-11,16:00～16:59,0.0371,0.0319,0.0343,
新宿 (Shinjuku),2011-03-11,15:00～15:59,0.0363,0.0316,0.0342,
新宿 (Shinjuku),2011-03-11,14:00～14:59,0.0367,0.0318,0.0340,
新宿 (Shinjuku),2011-03-11,13:00～13:59,0.0361,0.0315,0.0338,
新宿 (Shinjuku),2011-03-11,12:00～12:59,0.0356,0.0313,0.0339,
新宿 (Shinjuku),2011-03-11,11:00～11:59,0.0370,0.0315,0.0340,
新宿 (Shinjuku),2011-03-11,10:00～10:59,0.0366,0.0308,0.0341,
新宿 (Shinjuku),2011-03-11,09:00～09:59,0.0366,0.0308,0.0343,
新宿 (Shinjuku),2011-03-11,08:00～08:59,0.0363,0.0319,0.0343,
新宿 (Shinjuku),2011-03-11,07:00～07:59,0.0376,0.0329,0.0346,
新宿 (Shinjuku),2011-03-11,06:00～06:59,0.0368,0.0322,0.0342,
新宿 (Shinjuku),2011-03-11,05:00～05:59,0.0370,0.0325,0.0346,
新宿 (Shinjuku),2011-03-11,04:00～04:59,0.0364,0.0320,0.0344,
新宿 (Shinjuku),2011-03-11,03:00～03:59,0.0371,0.0322,0.0346,
新宿 (Shinjuku),2011-03-11,02:00～02:59,0.0365,0.0320,0.0344,
新宿 (Shinjuku),2011-03-11,01:00～01:59,0.0366,0.0319,0.0343,
新宿 (Shinjuku),2011-03-11,00:00～00:59,0.0368,0.0311,0.0340,
新宿 (Shinjuku),2011-03-10,23:00～23:59,0.0370,0.0313,0.0341,
新宿 (Shinjuku),2011-03-10,22:00～22:59,0.0358,0.0312,0.0333,
新宿 (Shinjuku),2011-03-10,21:00～21:59,0.0357,0.0315,0.0335,
新宿 (Shinjuku),2011-03-10,20:00～20:59,0.0364,0.0319,0.0337,
新宿 (Shinjuku),2011-03-10,19:00～19:59,0.0362,0.0308,0.0336,
新宿 (Shinjuku),2011-03-10,18:00～18:59,0.0365,0.0310,0.0334,
新宿 (Shinjuku),2011-03-10,17:00～17:59,0.0351,0.0311,0.0334,
新宿 (Shinjuku),2011-03-10,16:00～16:59,0.0362,0.0313,0.0335,
新宿 (Shinjuku),2011-03-10,15:00～15:59,0.0367,0.0313,0.0340,
新宿 (Shinjuku),2011-03-10,14:00～14:59,0.0362,0.0308,0.0337,
新宿 (Shinjuku),2011-03-10,13:00～13:59,0.0367,0.0314,0.0340,
新宿 (Shinjuku),2011-03-10,12:00～12:59,0.0356,0.0320,0.0340,
新宿 (Shinjuku),2011-03-10,11:00～11:59,0.0356,0.0307,0.0339,
新宿 (Shinjuku),2011-03-10,10:00～10:59,0.0365,0.0316,0.0337,
新宿 (Shinjuku),2011-03-10,09:00～09:59,0.0360,0.0319,0.0338,
新宿 (Shinjuku),2011-03-10,08:00～08:59,0.0360,0.0321,0.0342,
新宿 (Shinjuku),2011-03-10,07:00～07:59,0.0363,0.0308,0.0342,
新宿 (Shinjuku),2011-03-10,06:00～06:59,0.0372,0.0317,0.0340,
新宿 (Shinjuku),2011-03-10,05:00～05:59,0.0363,0.0317,0.0340,
新宿 (Shinjuku),2011-03-10,04:00～04:59,0.0363,0.0315,0.0343,
新宿 (Shinjuku),2011-03-10,03:00～03:59,0.0363,0.0321,0.0340,
新宿 (Shinjuku),2011-03-10,02:00～02:59,0.0361,0.0322,0.0341,
新宿 (Shinjuku),2011-03-10,01:00～01:59,0.0364,0.0319,0.0341,
新宿 (Shinjuku),2011-03-10,00:00～00:59,0.0367,0.0318,0.0340,
新宿 (Shinjuku),2011-03-09,23:00～23:59,0.0367,0.0327,0.0343,
新宿 (Shinjuku),2011-03-09,22:00～22:59,0.0359,0.0320,0.0339,
新宿 (Shinjuku),2011-03-09,21:00～21:59,0.0353,0.0311,0.0336,
新宿 (Shinjuku),2011-03-09,20:00～20:59,0.0357,0.0316,0.0337,
新宿 (Shinjuku),2011-03-09,19:00～19:59,0.0353,0.0314,0.0336,
新宿 (Shinjuku),2011-03-09,18:00～18:59,0.0355,0.0315,0.0334,
新宿 (Shinjuku),2011-03-09,17:00～17:59,0.0370,0.0318,0.0340,
新宿 (Shinjuku),2011-03-09,16:00～16:59,0.0364,0.0321,0.0341,
新宿 (Shinjuku),2011-03-09,15:00～15:59,0.0369,0.0322,0.0344,
新宿 (Shinjuku),2011-03-09,14:00～14:59,0.0367,0.0320,0.0345,
新宿 (Shinjuku),2011-03-09,13:00～13:59,0.0365,0.0324,0.0343,
新宿 (Shinjuku),2011-03-09,12:00～12:59,0.0364,0.0314,0.0345,
新宿 (Shinjuku),2011-03-09,11:00～11:59,0.0361,0.0316,0.0342,
新宿 (Shinjuku),2011-03-09,10:00～10:59,0.0377,0.0318,0.0344,
新宿 (Shinjuku),2011-03-09,09:00～09:59,0.0366,0.0327,0.0343,
新宿 (Shinjuku),2011-03-09,08:00～08:59,0.0370,0.0324,0.0346,
新宿 (Shinjuku),2011-03-09,07:00～07:59,0.0366,0.0322,0.0346,
新宿 (Shinjuku),2011-03-09,06:00～06:59,0.0370,0.0324,0.0351,
新宿 (Shinjuku),2011-03-09,05:00～05:59,0.0379,0.0331,0.0350,
新宿 (Shinjuku),2011-03-09,04:00～04:59,0.0370,0.0322,0.0346,
新宿 (Shinjuku),2011-03-09,03:00～03:59,0.0370,0.0330,0.0346,
新宿 (Shinjuku),2011-03-09,02:00～02:59,0.0367,0.0318,0.0344,
新宿 (Shinjuku),2011-03-09,01:00～01:59,0.0368,0.0322,0.0343,
新宿 (Shinjuku),2011-03-09,00:00～00:59,0.0360,0.0312,0.0340,
新宿 (Shinjuku),2011-03-08,23:00～23:59,0.0364,0.0315,0.0340,
新宿 (Shinjuku),2011-03-08,22:00～22:59,0.0361,0.0320,0.0339,
新宿 (Shinjuku),2011-03-08,21:00～21:59,0.0360,0.0315,0.0339,
新宿 (Shinjuku),2011-03-08,20:00～20:59,0.0357,0.0313,0.0337,
新宿 (Shinjuku),2011-03-08,19:00～19:59,0.0366,0.0319,0.0340,
新宿 (Shinjuku),2011-03-08,18:00～18:59,0.0365,0.0317,0.0337,
新宿 (Shinjuku),2011-03-08,17:00～17:59,0.0363,0.0318,0.0339,
新宿 (Shinjuku),2011-03-08,16:00～16:59,0.0361,0.0321,0.0339,
新宿 (Shinjuku),2011-03-08,15:00～15:59,0.0363,0.0322,0.0342,
新宿 (Shinjuku),2011-03-08,14:00～14:59,0.0363,0.0315,0.0342,
新宿 (Shinjuku),2011-03-08,13:00～13:59,0.0361,0.0321,0.0343,
新宿 (Shinjuku),2011-03-08,12:00～12:59,0.0367,0.0326,0.0344,
新宿 (Shinjuku),2011-03-08,11:00～11:59,0.0372,0.0312,0.0342,
新宿 (Shinjuku),2011-03-08,10:00～10:59,0.0367,0.0325,0.0343,
新宿 (Shinjuku),2011-03-08,09:00～09:59,0.0360,0.0316,0.0340,
新宿 (Shinjuku),2011-03-08,08:00～08:59,0.0359,0.0322,0.0342,
新宿 (Shinjuku),2011-03-08,07:00～07:59,0.0370,0.0318,0.0343,
新宿 (Shinjuku),2011-03-08,06:00～06:59,0.0370,0.0320,0.0344,
新宿 (Shinjuku),2011-03-08,05:00～05:59,0.0361,0.0314,0.0340,
新宿 (Shinjuku),2011-03-08,04:00～04:59,0.0374,0.0321,0.0339,
新宿 (Shinjuku),2011-03-08,03:00～03:59,0.0363,0.0323,0.0343,
新宿 (Shinjuku),2011-03-08,02:00～02:59,0.0374,0.0326,0.0350,
新宿 (Shinjuku),2011-03-08,01:00～01:59,0.0388,0.0323,0.0360,
新宿 (Shinjuku),2011-03-08,00:00～00:59,0.0382,0.0332,0.0355,
新宿 (Shinjuku),2011-03-07,23:00～23:59,0.0379,0.0328,0.0351,
新宿 (Shinjuku),2011-03-07,22:00～22:59,0.0366,0.0324,0.0347,
新宿 (Shinjuku),2011-03-07,21:00～21:59,0.0363,0.0315,0.0341,
新宿 (Shinjuku),2011-03-07,20:00～20:59,0.0367,0.0325,0.0345,
新宿 (Shinjuku),2011-03-07,19:00～19:59,0.0365,0.0319,0.0344,
新宿 (Shinjuku),2011-03-07,18:00～18:59,0.0381,0.0318,0.0344,
新宿 (Shinjuku),2011-03-07,17:00～17:59,0.0368,0.0318,0.0338,
新宿 (Shinjuku),2011-03-07,16:00～16:59,0.0363,0.0310,0.0342,
新宿 (Shinjuku),2011-03-07,15:00～15:59,0.0377,0.0327,0.0350,
新宿 (Shinjuku),2011-03-07,14:00～14:59,0.0391,0.0343,0.0365,
新宿 (Shinjuku),2011-03-07,13:00～13:59,0.0426,0.0356,0.0392,
新宿 (Shinjuku),2011-03-07,12:00～12:59,0.0426,0.0385,0.0404,
新宿 (Shinjuku),2011-03-07,11:00～11:59,0.0422,0.0368,0.0402,
新宿 (Shinjuku),2011-03-07,10:00～10:59,0.0430,0.0391,0.0411,
新宿 (Shinjuku),2011-03-07,09:00～09:59,0.0440,0.0379,0.0407,
新宿 (Shinjuku),2011-03-07,08:00～08:59,0.0428,0.0386,0.0405,
新宿 (Shinjuku),2011-03-07,07:00～07:59,0.0429,0.0376,0.0397,
新宿 (Shinjuku),2011-03-07,06:00～06:59,0.0412,0.0365,0.0387,
新宿 (Shinjuku),2011-03-07,05:00～05:59,0.0392,0.0342,0.0372,
新宿 (Shinjuku),2011-03-07,04:00～04:59,0.0393,0.0339,0.0365,
新宿 (Shinjuku),2011-03-07,03:00～03:59,0.0384,0.0320,0.0348,
新宿 (Shinjuku),2011-03-07,02:00～02:59,0.0360,0.0308,0.0337,
新宿 (Shinjuku),2011-03-07,01:00～01:59,0.0360,0.0320,0.0340,
新宿 (Shinjuku),2011-03-07,00:00～00:59,0.0363,0.0321,0.0339,
